Weather History for Palacios, TX

Change the Weather History Date:

Friday, December 7, 2012

  Actual Average Record
Temperature  
Mean Temperature 68 °F -  
Max Temperature 80 °F 67 °F 81 °F (1956)
Min Temperature 57 °F 47 °F 18 °F (1950)
Cooling Degree Days 4    
Growing Degree Days 18 (Base 50)    
Moisture  
Dew Point 62 °F    
Average Humidity 87    
Maximum Humidity 100    
Minimum Humidity 64    
Precipitation  
Precipitation 0.01 in - - ()
Sea Level Pressure  
Sea Level Pressure 29.86 in    
Wind  
Wind Speed 4 mph (SE)    
Max Wind Speed 13 mph    
Max Gust Speed -    
Visibility 5 miles    
Events Fog    
Averages and records for this station are not official NWS values.
T = Trace of Precipitation, MM = Missing Value Source: NWS Daily Summary

Daily Weather History Graph

Daily Weather History Graph

Search for Another Location

Airport:

Trip Planner

Search our weather history database for the weather conditions in past years. The results will help you decide how hot, cold, wet, or windy it might be!

Date:

Astronomy

Dec. 07, 2012 Rise Set
Actual Time 7:05 AM CST 5:28 PM CST
Civil Twilight 6:39 AM CST 5:53 PM CST
Nautical Twilight 6:10 AM CST 6:23 PM CST
Astronomical Twilight 5:41 AM CST 6:51 PM CST
Moon 12:52 AM CST (12/7) 1:02 PM CST (12/7)
Length of Visible Light 11h 14m
Length of Day
10h 22m
Last Quarter, 38% of the Moon is Illuminated
Dec 7
Last Quarter
Dec 13
New
Dec 19
First Quarter
Dec 28
Full
Jan 4
Last Quarter

Hourly Weather History & Observations

Time (CST) Temp. Heat Index Dew Point Humidity Pressure Visibility Wind Dir Wind Speed Gust Speed Precip Events Conditions
12:53 AM 63.0 °F - 61.0 °F 93% 29.88 in 8.0 mi ESE 4.6 mph - N/A   Clear
1:32 AM 60.8 °F - 59.0 °F 94% 29.87 in 1.8 mi ENE 3.5 mph - N/A   Clear
1:42 AM 60.8 °F - 57.2 °F 88% 29.87 in 0.5 mi East 3.5 mph - N/A Fog Fog
1:53 AM 60.1 °F - 57.9 °F 93% 29.87 in 0.5 mi East 3.5 mph - N/A Fog Fog
2:24 AM 57.2 °F - 57.2 °F 100% 29.87 in 0.2 mi East 3.5 mph - 0.01 in Fog Fog
2:44 AM 59.0 °F - 57.2 °F 94% 29.86 in 1.0 mi ESE 4.6 mph - 0.01 in   Mist
2:47 AM 60.8 °F - 57.2 °F 88% 29.86 in 2.0 mi ESE 4.6 mph - 0.01 in   Partly Cloudy
2:53 AM 59.0 °F - 57.9 °F 96% 29.86 in 5.0 mi ESE 4.6 mph - 0.01 in   Partly Cloudy
3:46 AM 60.8 °F - 57.2 °F 88% 29.85 in 1.8 mi SE 3.5 mph - N/A   Clear
3:53 AM 61.0 °F - 59.0 °F 93% 29.86 in 0.8 mi SE 3.5 mph - N/A   Clear
3:59 AM 60.8 °F - 57.2 °F 88% 29.85 in 2.0 mi Calm Calm - N/A   Clear
4:04 AM 60.8 °F - 59.0 °F 94% 29.85 in 0.8 mi Calm Calm - N/A   Clear
4:53 AM 60.1 °F - 59.0 °F 96% 29.85 in 0.5 mi SE 3.5 mph - N/A Fog Fog
5:20 AM 60.8 °F - 57.2 °F 88% 29.85 in 2.0 mi SE 3.5 mph - N/A   Clear
5:27 AM 60.8 °F - 57.2 °F 88% 29.85 in 6.0 mi ESE 3.5 mph - N/A   Clear
5:35 AM 60.8 °F - 57.2 °F 88% 29.85 in 1.8 mi ESE 3.5 mph - N/A   Clear
5:45 AM 60.8 °F - 57.2 °F 88% 29.85 in 0.5 mi East 3.5 mph - N/A Fog Fog
5:53 AM 60.1 °F - 57.9 °F 93% 29.86 in 0.5 mi East 3.5 mph - N/A Fog Fog
6:24 AM 62.6 °F - 60.8 °F 94% 29.86 in 1.0 mi East 4.6 mph - N/A   Partly Cloudy
6:50 AM 62.6 °F - 60.8 °F 94% 29.87 in 2.5 mi East 4.6 mph - N/A   Partly Cloudy
6:53 AM 62.1 °F - 61.0 °F 96% 29.87 in 1.5 mi East 4.6 mph - N/A   Partly Cloudy
7:03 AM 62.6 °F - 60.8 °F 94% 29.87 in 0.8 mi East 4.6 mph - N/A   Partly Cloudy
7:10 AM 62.6 °F - 60.8 °F 94% 29.88 in 2.5 mi East 3.5 mph - N/A   Scattered Clouds
7:17 AM 62.6 °F - 62.6 °F 100% 29.87 in 5.0 mi East 3.5 mph - N/A   Mostly Cloudy
7:53 AM 64.0 °F - 62.1 °F 93% 29.88 in 8.0 mi East 3.5 mph - N/A   Clear
8:53 AM 72.0 °F - 68.0 °F 87% 29.88 in 10.0 mi Calm Calm - N/A   Clear
9:53 AM 73.9 °F - 69.1 °F 85% 29.90 in 10.0 mi South 5.8 mph - N/A   Partly Cloudy
10:53 AM 75.9 °F - 66.9 °F 74% 29.90 in 10.0 mi SSW 6.9 mph - N/A   Clear
11:53 AM 78.1 °F - 66.9 °F 68% 29.88 in 5.0 mi SSW 8.1 mph - N/A   Haze
12:53 PM 79.0 °F - 66.9 °F 66% 29.85 in 10.0 mi SSW 9.2 mph - N/A   Clear
1:53 PM 80.1 °F 82.3 °F 66.9 °F 64% 29.82 in 10.0 mi South 12.7 mph - N/A   Clear
2:53 PM 78.1 °F - 66.9 °F 68% 29.81 in 10.0 mi South 12.7 mph - N/A   Clear
3:53 PM 78.1 °F - 66.9 °F 68% 29.81 in 10.0 mi South 11.5 mph - N/A   Clear
4:53 PM 77.0 °F - 66.9 °F 71% 29.82 in 10.0 mi South 6.9 mph - N/A   Clear
5:53 PM 72.0 °F - 66.9 °F 84% 29.83 in 10.0 mi SE 4.6 mph - N/A   Scattered Clouds
6:53 PM 69.8 °F - 66.2 °F 88% 29.83 in 10.0 mi SE 6.9 mph - N/A   Clear
7:53 PM 69.1 °F - 64.9 °F 87% 29.84 in 10.0 mi ESE 5.8 mph - N/A   Clear
8:53 PM 68.0 °F - 66.0 °F 93% 29.86 in 10.0 mi SE 5.8 mph - N/A   Clear
9:53 PM 71.1 °F - 66.9 °F 87% 29.86 in 10.0 mi SSE 6.9 mph - N/A   Partly Cloudy
10:53 PM 71.1 °F - 66.9 °F 87% 29.86 in 10.0 mi SSE 8.1 mph - N/A   Partly Cloudy
11:53 PM 71.1 °F - 66.9 °F 87% 29.85 in 10.0 mi South 4.6 mph - N/A   Scattered Clouds